Weather in Matsuta

Russia / Republic of North Ossetia — Alania     42°58′55″N   43°46′34″E
temp.,
°C
wind,
m/s
gust,
m/s
humid.,
%
clouds,
%
prec.,
mm/h
press.,
hPa
HPBL,
m
25 february, thu
thu2500:00−11sw44775 0.0 103744
03:00−11sw44743 0.0 103638
06:00−10sw336752 0.0 103623
09:00−6wsw017069 0.0 1036147
12:00−4ne118232 0.0 1034406
15:00−4nne128836 0.0 1032337
18:00−10ssw228432 0.0 103324
21:00−9sw227859 0.0 103327
26 february, fri
fri2600:00−6sw1279100 0.0 103230
03:00−8ssw0180100 0.0 103121
06:00−8sw1276100 0.0 103021
09:00−4ese118097 0.0 1029102
12:00−2ene219751 0.0 1027220
15:00−3nne229971 0.0 1026117
18:00−5ese119897 0.1 102640
21:00−6ssw119378 0.1 102723
27 february, sat
sat2700:00−6sw118862 0.0 102521
03:00−7sw227640 0.0 102422
06:00−7sw22740 0.0 102321
09:00−3s01790 0.0 1021182
12:00−1e029216 0.0 1019289
15:00−1ssw129036 0.0 1017253
18:00−6sw338548 0.0 101836
21:00−7sw447542 0.0 101836
28 february, sun
sun2800:00−8sw557122 0.0 101763
03:00−7sw657011 0.0 101679
06:00−8sw54720 0.0 101659
09:00−4ssw34842 0.0 1015211
12:00−3s148919 0.1 1015378
15:00−4s148835 0.5 1015448
18:00−7ssw129359 0.7 101773
21:00−9sw119358 1.8 101930
1 march, mon
mon100:00−9ssw119460 0.9 102145
03:00−10sw129359 2.1 102281
06:00−12sw119475 0.9 102421
09:00−9ne119386 1.4 1024267
12:00−7ne229398 1.0 1024450
15:00−8ne229699 2.3 1025314
18:00−11ene11100100 0.9 102627
21:00−13sw228698 1.1 102921